EWG625 EDDH-LOWW

Flight info

Callsign EWG625
Flight time N/A
Altitude 35000
Route RAMAR6G/33 RAMAR Z998 OSKAN M748 HDO DCT EVIKU DCT BITSI DCT MIKOV
Aircraft B738/M-SDE2E3FGHIRWXY/LB1

Departure

Time 2026-04-23 19:42
Airport Hamburg Helmut Schmidt Airport (EDDH)

Arrival

Time N/A
Airport Vienna International Airport (LOWW)
Time Latitude Longitude Altitude Speed Heading
2026-04-23 19:10 53.62885 10.00227 62 ft 0 kts 122°
2026-04-23 19:34 53.62889 10.00218 62 ft 2 kts 122°
2026-04-23 19:34 53.62897 10.00196 62 ft 2 kts 123°
2026-04-23 19:34 53.62913 10.00154 62 ft 2 kts 123°
2026-04-23 19:35 53.62923 10.00132 62 ft 2 kts 142°
2026-04-23 19:35 53.62936 10.00119 62 ft 2 kts 160°
2026-04-23 19:35 53.62951 10.00113 62 ft 2 kts 179°
2026-04-23 19:35 53.62967 10.00116 62 ft 2 kts 197°
2026-04-23 19:36 53.62977 10.00123 62 ft 0 kts 211°
2026-04-23 19:36 53.62982 10.00129 62 ft 0 kts 213°
2026-04-23 19:38 53.62980 10.00127 62 ft 1 kts 213°
2026-04-23 19:38 53.62967 10.00113 62 ft 3 kts 212°
2026-04-23 19:38 53.62944 10.00090 62 ft 4 kts 210°
2026-04-23 19:39 53.62917 10.00065 62 ft 4 kts 208°
2026-04-23 19:39 53.62888 10.00039 62 ft 4 kts 208°
2026-04-23 19:39 53.62861 10.00002 62 ft 5 kts 230°
2026-04-23 19:39 53.62847 9.99970 62 ft 0 kts 237°
2026-04-23 19:40 53.62835 9.99938 62 ft 9 kts 238°
2026-04-23 19:40 53.62819 9.99810 62 ft 11 kts 294°
2026-04-23 19:41 53.62868 9.99742 62 ft 0 kts 332°
2026-04-23 19:42 53.62885 9.99727 62 ft 21 kts 332°
2026-04-23 19:42 53.63317 9.99371 62 ft 111 kts 333°
2026-04-23 19:42 53.64269 9.98558 112 ft 179 kts 334°
2026-04-23 19:42 53.65345 9.97487 1055 ft 175 kts 334°
2026-04-23 19:43 53.66454 9.96479 1756 ft 190 kts 342°
2026-04-23 19:43 53.67711 9.95540 2426 ft 202 kts 341°
2026-04-23 19:43 53.69075 9.94679 3044 ft 211 kts 353°
2026-04-23 19:43 53.70563 9.94533 3846 ft 211 kts
2026-04-23 19:44 53.72041 9.94801 4659 ft 211 kts 18°
2026-04-23 19:44 53.73410 9.95832 5040 ft 212 kts 39°
2026-04-23 19:44 53.74440 9.97794 5089 ft 225 kts 61°
2026-04-23 19:44 53.75148 10.00286 5073 ft 225 kts 65°
2026-04-23 19:45 53.75825 10.02740 5091 ft 228 kts 65°
2026-04-23 19:45 53.76548 10.05253 5781 ft 238 kts 64°
2026-04-23 19:45 53.77278 10.07774 6946 ft 232 kts 64°
2026-04-23 19:45 53.78027 10.10368 7586 ft 248 kts 64°
2026-04-23 19:46 53.78608 10.13209 8437 ft 257 kts 82°
2026-04-23 19:46 53.78376 10.16275 9351 ft 265 kts 109°
2026-04-23 19:46 53.77326 10.18991 10199 ft 274 kts 127°
2026-04-23 19:46 53.75992 10.21514 10724 ft 288 kts 126°
2026-04-23 19:47 53.75124 10.23292 11125 ft 296 kts 124°
2026-04-23 19:47 53.73370 10.27282 11857 ft 316 kts 123°
2026-04-23 19:47 53.71815 10.30185 12636 ft 326 kts 131°
2026-04-23 19:47 53.70056 10.32911 13498 ft 331 kts 134°
2026-04-23 19:48 53.68306 10.35537 14351 ft 335 kts 133°
2026-04-23 19:48 53.66551 10.38219 15140 ft 337 kts 133°
2026-04-23 19:48 53.64773 10.40987 15923 ft 340 kts 132°
2026-04-23 19:48 53.62973 10.43823 16744 ft 343 kts 132°
2026-04-23 19:49 53.61188 10.46646 17515 ft 346 kts 131°
2026-04-23 19:49 53.59379 10.49509 18243 ft 349 kts 131°
2026-04-23 19:49 53.57610 10.52307 18949 ft 351 kts 131°
2026-04-23 19:49 53.55795 10.55172 19627 ft 354 kts 131°
2026-04-23 19:50 53.53941 10.58098 20318 ft 358 kts 131°
2026-04-23 19:50 53.52049 10.61076 21033 ft 360 kts 131°
2026-04-23 19:50 53.50156 10.64055 21686 ft 363 kts 131°
2026-04-23 19:50 53.48238 10.67069 22320 ft 366 kts 131°
2026-04-23 19:51 53.46321 10.70077 22947 ft 369 kts 131°
2026-04-23 19:51 53.44403 10.73085 23537 ft 372 kts 131°
2026-04-23 19:51 53.42468 10.76113 24122 ft 375 kts 131°
2026-04-23 19:51 53.40537 10.79132 24665 ft 378 kts 131°
2026-04-23 19:52 53.39255 10.81133 25040 ft 379 kts 131°
2026-04-23 19:52 53.36603 10.85264 25714 ft 384 kts 131°
2026-04-23 19:52 53.34593 10.88389 26231 ft 387 kts 131°
2026-04-23 19:52 53.32566 10.91542 26714 ft 390 kts 131°
2026-04-23 19:53 53.30525 10.94712 27195 ft 393 kts 131°
2026-04-23 19:53 53.28467 10.97902 27726 ft 394 kts 131°
2026-04-23 19:53 53.26429 11.01060 28119 ft 398 kts 131°
2026-04-23 19:53 53.24381 11.04231 28580 ft 400 kts 131°
2026-04-23 19:54 53.22253 11.07519 29015 ft 403 kts 131°
2026-04-23 19:54 53.20132 11.10791 29466 ft 405 kts 131°
2026-04-23 19:54 53.17995 11.14082 29825 ft 409 kts 131°
2026-04-23 19:54 53.15856 11.17372 30272 ft 410 kts 131°
2026-04-23 19:55 53.13707 11.20672 30603 ft 414 kts 131°
2026-04-23 19:55 53.11502 11.24053 31056 ft 415 kts 131°
2026-04-23 19:55 53.09316 11.27401 31379 ft 419 kts 131°
2026-04-23 19:55 53.07119 11.30763 31644 ft 423 kts 131°
2026-04-23 19:56 53.04887 11.34171 32027 ft 424 kts 131°
2026-04-23 19:56 53.02655 11.37568 32347 ft 426 kts 131°
2026-04-23 19:56 53.00402 11.40998 32565 ft 431 kts 131°
2026-04-23 19:56 52.98145 11.44428 32953 ft 431 kts 131°
2026-04-23 19:57 52.95853 11.47906 33147 ft 436 kts 131°
2026-04-23 19:57 52.93550 11.51396 33444 ft 438 kts 131°
2026-04-23 19:57 52.92030 11.53696 33718 ft 437 kts 131°
2026-04-23 19:57 52.88985 11.58290 34240 ft 436 kts 131°
2026-04-23 19:58 52.86716 11.61713 34513 ft 438 kts 131°
2026-04-23 19:58 52.84433 11.65148 34866 ft 436 kts 132°
2026-04-23 19:58 52.82193 11.68518 35061 ft 438 kts 133°
2026-04-23 19:58 52.79943 11.71900 35233 ft 439 kts 133°
2026-04-23 19:59 52.77650 11.75342 35265 ft 442 kts 133°
2026-04-23 19:59 52.73109 11.82133 35274 ft 440 kts 133°
2026-04-23 20:00 52.68560 11.88915 35274 ft 439 kts 133°
2026-04-23 20:00 52.64045 11.95632 35282 ft 439 kts 133°
2026-04-23 20:01 52.60470 12.00933 35270 ft 440 kts 133°